TimeMST,TemperatureF,Dew PointF,Humidity,Sea Level PressureIn,VisibilityMPH,Wind Direction,Wind SpeedMPH,Gust SpeedMPH,PrecipitationIn,Events,Conditions,WindDirDegrees,DateUTC
12:52 AM,12.2,8.6,85,29.79,10.0,Calm,Calm,-,N/A,,Clear,0,2013-02-22 07:52:00
1:52 AM,12.9,10.0,88,29.88,10.0,Calm,Calm,-,N/A,,Mostly Cloudy,0,2013-02-22 08:52:00
2:52 AM,15.1,12.9,91,29.85,7.0,Calm,Calm,-,0.00,Snow,Light Snow,0,2013-02-22 09:52:00
3:52 AM,19.0,16.0,88,29.85,3.0,Calm,Calm,-,0.00,Snow,Light Snow,0,2013-02-22 10:52:00
4:01 AM,19.4,15.8,86,29.80,2.0,Calm,Calm,-,0.00,Snow,Light Snow,0,2013-02-22 11:01:00
4:30 AM,19.4,17.6,93,29.80,4.0,Calm,Calm,-,0.01,Snow,Light Snow,0,2013-02-22 11:30:00
4:52 AM,17.6,15.8,93,29.79,7.0,Calm,Calm,-,N/A,,Overcast,0,2013-02-22 11:52:00
5:12 AM,17.6,15.8,93,29.79,5.0,Calm,Calm,-,0.00,Snow,Light Snow,0,2013-02-22 12:12:00
5:25 AM,17.6,15.8,93,29.80,7.0,Calm,Calm,-,0.00,,Mostly Cloudy,0,2013-02-22 12:25:00
5:52 AM,16.0,14.0,92,29.91,10.0,Calm,Calm,-,0.00,,Mostly Cloudy,0,2013-02-22 12:52:00
6:52 AM,16.0,14.0,92,29.94,10.0,WNW,4.6,-,N/A,,Overcast,290,2013-02-22 13:52:00
7:52 AM,18.0,15.1,88,29.93,5.0,Calm,Calm,-,0.00,,Overcast,0,2013-02-22 14:52:00
7:59 AM,19.4,15.8,86,29.84,6.0,North,3.5,-,N/A,,Overcast,10,2013-02-22 14:59:00
8:26 AM,19.4,17.6,93,29.85,10.0,NW,3.5,-,N/A,,Mostly Cloudy,310,2013-02-22 15:26:00
8:52 AM,21.9,17.1,82,29.93,10.0,NNE,3.5,-,N/A,,Mostly Cloudy,20,2013-02-22 15:52:00
9:42 AM,24.8,19.4,80,29.84,10.0,ENE,4.6,-,N/A,,Mostly Cloudy,70,2013-02-22 16:42:00
9:52 AM,25.0,19.0,78,29.92,10.0,Calm,Calm,-,N/A,,Mostly Cloudy,0,2013-02-22 16:52:00
10:28 AM,24.8,19.4,80,29.84,10.0,Variable,4.6,-,N/A,,Scattered Clouds,0,2013-02-22 17:28:00
10:40 AM,26.6,19.4,74,29.84,10.0,SE,4.6,-,N/A,,Mostly Cloudy,140,2013-02-22 17:40:00
10:50 AM,26.6,19.4,74,29.84,10.0,Calm,Calm,-,N/A,,Scattered Clouds,0,2013-02-22 17:50:00
10:52 AM,26.1,19.0,75,29.94,10.0,Calm,Calm,-,N/A,,Scattered Clouds,0,2013-02-22 17:52:00
11:00 AM,26.6,19.4,74,29.85,10.0,Variable,3.5,-,N/A,,Mostly Cloudy,0,2013-02-22 18:00:00
11:31 AM,28.4,15.8,59,29.83,10.0,South,3.5,-,N/A,,Overcast,190,2013-02-22 18:31:00
11:52 AM,28.9,15.1,56,29.92,10.0,Calm,Calm,-,N/A,,Mostly Cloudy,0,2013-02-22 18:52:00
12:52 PM,28.0,17.1,63,29.91,10.0,Variable,4.6,-,N/A,,Overcast,0,2013-02-22 19:52:00
1:52 PM,30.9,12.9,47,29.88,10.0,West,3.5,-,N/A,,Mostly Cloudy,270,2013-02-22 20:52:00
2:52 PM,30.9,12.9,47,29.86,10.0,West,5.8,-,N/A,,Overcast,270,2013-02-22 21:52:00
3:52 PM,30.0,14.0,51,29.85,10.0,West,5.8,-,N/A,,Overcast,270,2013-02-22 22:52:00
4:52 PM,28.9,12.9,51,29.87,10.0,NNW,9.2,-,N/A,,Overcast,330,2013-02-22 23:52:00
5:52 PM,25.0,19.0,78,29.93,10.0,North,11.5,-,N/A,,Overcast,350,2013-02-23 00:52:00
6:26 PM,24.8,19.4,80,29.85,2.0,WNW,8.1,-,0.00,Snow,Light Snow,300,2013-02-23 01:26:00
6:36 PM,23.0,19.4,86,29.85,2.5,WNW,5.8,-,0.00,Snow,Light Snow,290,2013-02-23 01:36:00
6:43 PM,24.8,17.6,74,29.86,6.0,WNW,8.1,-,0.00,Snow,Light Snow,300,2013-02-23 01:43:00
6:52 PM,23.0,19.0,85,29.98,10.0,West,9.2,17.3,0.00,,Overcast,280,2013-02-23 01:52:00
7:52 PM,21.0,17.1,85,29.99,10.0,WNW,4.6,-,N/A,,Mostly Cloudy,290,2013-02-23 02:52:00
8:52 PM,19.0,15.1,85,30.00,10.0,Calm,Calm,-,N/A,,Partly Cloudy,0,2013-02-23 03:52:00
9:52 PM,15.1,10.9,84,30.03,10.0,West,4.6,-,N/A,,Clear,260,2013-02-23 04:52:00
10:52 PM,10.9,7.0,84,30.04,10.0,Calm,Calm,-,N/A,,Clear,0,2013-02-23 05:52:00
11:52 PM,10.9,6.1,81,30.04,10.0,WSW,4.6,-,N/A,,Clear,240,2013-02-23 06:52:00